Overview Statistics Trail Chart Weather Telemetry Raw packets
 

This is the latest recevied weather packets stored in our database for station/object K5SVV. If no packets are shown the sender has not sent any weather packets the latest 10 day(s).

<< 12 13 14 15 16 17 18 >>
Time Temp. Humidity Pressure Rain* Wind** Luminosity Snow
1788574927 31.11° C 63% 1012.4 hPa 0 mm - 0 W/m² -
1788574621 31.11° C 62% 1012 hPa 0 mm - 0 W/m² -
1788574316 31.11° C 62% 1012.4 hPa 0 mm - 0 W/m² -
1788574011 31.11° C 61% 1012.2 hPa 0 mm - 0 W/m² -
1788573707 31.11° C 61% 1012 hPa 0 mm - 0 W/m² -
1788573405 31.67° C 60% 1011.9 hPa 0 mm - 0 W/m² -
1788573099 31.67° C 59% 1011.8 hPa 0 mm - 0 W/m² -
1788572793 31.67° C 58% 1011.8 hPa 0 mm - 0 W/m² -
1788572488 31.67° C 57% 1011.9 hPa 0 mm - 0 W/m² -
1788572185 31.67° C 57% 1011.7 hPa 0 mm - 0 W/m² -
1788571880 32.22° C 55% 1011.6 hPa 0 mm - 0 W/m² -
1788571575 32.22° C 54% 1011.7 hPa 0 mm - 0 W/m² -
1788571272 32.22° C 53% 1011.7 hPa 0 mm - 0 W/m² -
1788570967 32.22° C 52% 1011.5 hPa 0 mm - 0 W/m² -
1788570663 32.22° C 52% 1011.3 hPa 0 mm - 0 W/m² -
1788570356 32.78° C 51% 1011.4 hPa 0 mm - 0 W/m² -
1788570053 32.78° C 51% 1011.3 hPa 0 mm - 0 W/m² -
1788569748 32.78° C 50% 1011.1 hPa 0 mm - 0 W/m² -
1788569444 32.78° C 50% 1011.1 hPa 0 mm - 1 W/m² -
1788569138 33.33° C 49% 1011.1 hPa 0 mm - 3 W/m² -
1788568854 33.33° C 49% 1011.1 hPa 0 mm - 6 W/m² -
1788568530 33.89° C 48% 1011 hPa 0 mm - 10 W/m² -
1788568225 33.89° C 48% 1011.2 hPa 0 mm - 14 W/m² -
1788567920 33.89° C 48% 1011.1 hPa 0 mm - 17 W/m² -
1788567614 33.89° C 48% 1011 hPa 0 mm - 22 W/m² -

* Rain latest hour (hover to see other rain measurements)
** Current wind speed in m/s (hover to see current wind gust speed)